This demonstration page uses our WeatherBlox Daily Observations layout. Learn more.

Hourly Observations for November 9, 2020

Temp ( °F °C ) Dew Point ( °F °C ) Humidity (%) Winds ( mph kmh ) Pressure ( in mb ) Visibility ( mi km ) Precip ( " mm )
12:15 am 00:15 Clear 50 10 50 10 100 100 Calm 30.39 1029 10 16.0934 0 0
12:35 am 00:35 Clear 50 10 48 9 94 94 Calm 30.39 1029 10 16.0934 0 0
12:55 am 00:55 Clear 46 8 46 8 100 100 Calm 30.38 1029 10 16.0934 0 0
1:15 am 01:15 Clear 46 8 46 8 100 100 Calm 30.38 1029 10 16.0934 0 0
1:35 am 01:35 Clear 46 8 46 8 100 100 Calm 30.38 1029 10 16.0934 0 0
1:55 am 01:55 Clear 46 8 46 8 100 100 Calm 30.38 1029 10 16.0934 0 0
2:15 am 02:15 Partly Cloudy 46 8 46 8 100 100 Calm 30.38 1029 10 16.0934 0 0
2:35 am 02:35 Clear 45 7 45 7 100 100 Calm 30.38 1029 7 11.26538 0 0
2:55 am 02:55 Mostly Cloudy 45 7 45 7 100 100 Calm 30.38 1029 10 16.0934 0 0
3:15 am 03:15 Mostly Cloudy 45 7 45 7 100 100 Calm 30.38 1029 10 16.0934 0 0
3:35 am 03:35 Mostly Cloudy 45 7 45 7 100 100 Calm 30.38 1029 10 16.0934 0 0
3:55 am 03:55 Cloudy 45 7 45 7 100 100 N 3 6 30.38 1029 7 11.26538 0 0
4:15 am 04:15 Mostly Cloudy 46 8 46 8 100 100 E 3 6 30.38 1029 7 11.26538 0 0
4:35 am 04:35 Mostly Cloudy N/A N/A N/A Calm N/A 10 16.0934 0 0
4:55 am 04:55 Cloudy 45 7 45 7 100 100 NNW 3 6 30.39 1029 10 16.0934 0 0
5:15 am 05:15 Cloudy 45 7 45 7 100 100 Calm 30.39 1029 7 11.26538 0 0
5:35 am 05:35 Cloudy N/A N/A N/A Calm N/A 0.5 0.80467 0 0
5:55 am 05:55 Cloudy N/A N/A N/A Calm N/A 0.25 0.402335 0 0
6:15 am 06:15 Cloudy N/A N/A N/A Calm N/A 0.25 0.402335 0 0
6:35 am 06:35 Cloudy N/A N/A N/A Calm N/A 0.25 0.402335 0 0
6:55 am 06:55 Cloudy N/A N/A N/A Calm N/A N/A 0 0
7:15 am 07:15 Cloudy N/A N/A N/A Calm N/A N/A 0 0
7:35 am 07:35 Cloudy N/A N/A N/A Calm N/A N/A 0 0
7:55 am 07:55 Cloudy N/A N/A N/A Calm N/A 0.25 0.402335 0 0
8:15 am 08:15 Cloudy N/A N/A N/A Calm N/A N/A 0 0
8:35 am 08:35 Cloudy N/A N/A N/A Calm N/A 0.5 0.80467 0 0
8:55 am 08:55 Cloudy N/A N/A N/A Calm N/A 0.5 0.80467 0 0
9:15 am 09:15 Cloudy 48 9 48 9 100 100 Calm 30.41 1030 0.75 1.207005 0 0
9:35 am 09:35 Mostly Cloudy 50 10 50 10 100 100 Calm 30.41 1030 4 6.43736 0 0
9:55 am 09:55 Partly Cloudy 52 11 52 11 100 100 Calm 30.4 1030 7 11.26538 0 0
10:15 am 10:15 Sunny N/A N/A N/A Calm N/A 10 16.0934 0 0
10:35 am 10:35 Sunny N/A N/A N/A Calm N/A 10 16.0934 0 0
10:55 am 10:55 Sunny N/A N/A N/A Calm N/A 5 8.0467 0 0
11:15 am 11:15 Sunny N/A N/A N/A Calm N/A 10 16.0934 0 0
11:35 am 11:35 Sunny N/A N/A N/A Calm N/A 10 16.0934 0 0
11:55 am 11:55 Sunny N/A N/A N/A Calm N/A 10 16.0934 0 0
12:15 pm 12:15 Sunny 66 19 55 13 68 68 S 3 6 30.32 1027 10 16.0934 0 0
12:35 pm 12:35 Sunny N/A N/A N/A S 6 9 N/A 10 16.0934 0 0
12:55 pm 12:55 Sunny N/A N/A N/A S 5 7 N/A 10 16.0934 0 0
1:15 pm 13:15 Partly Cloudy N/A N/A N/A S 7 11 N/A 10 16.0934 0 0
1:35 pm 13:35 Partly Cloudy N/A N/A N/A SW 7 11 N/A 10 16.0934 0 0
1:55 pm 13:55 Partly Cloudy N/A N/A N/A S 6 9 N/A 10 16.0934 0 0
2:15 pm 14:15 Partly Cloudy N/A N/A N/A S 12 19 N/A 10 16.0934 0 0
2:35 pm 14:35 Sunny N/A N/A N/A S 9 15 N/A 10 16.0934 0 0
2:55 pm 14:55 Sunny N/A N/A N/A SSW 12 19 N/A 10 16.0934 0 0
3:15 pm 15:15 Sunny N/A N/A N/A SSW 8 13 N/A 10 16.0934 0 0
3:35 pm 15:35 Sunny 72 22 55 13 57 57 SSW 9 15 30.28 1025 10 16.0934 0 0
3:55 pm 15:55 Sunny N/A N/A N/A SSW 7 11 N/A 10 16.0934 0 0
4:15 pm 16:15 Sunny N/A N/A N/A SSW 8 13 N/A 10 16.0934 0 0
4:35 pm 16:35 Sunny N/A N/A N/A S 5 7 N/A 10 16.0934 0 0
4:55 pm 16:55 Sunny N/A N/A N/A S 5 7 N/A 10 16.0934 0 0
5:15 pm 17:15 Clear N/A N/A N/A S 6 9 N/A 10 16.0934 0 0
5:35 pm 17:35 Clear N/A N/A N/A S 7 11 N/A 10 16.0934 0 0
5:55 pm 17:55 Clear N/A N/A N/A SSE 5 7 N/A 10 16.0934 0 0
6:15 pm 18:15 Clear N/A N/A N/A SSE 8 13 N/A 10 16.0934 0 0
6:35 pm 18:35 Clear N/A N/A N/A S 8 13 N/A 10 16.0934 0 0
6:55 pm 18:55 Clear 64 18 55 13 73 73 S 6 9 30.27 1025 10 16.0934 0 0
7:15 pm 19:15 Clear 63 17 55 13 77 77 S 5 7 30.29 1026 10 16.0934 0 0
7:35 pm 19:35 Clear 61 16 55 13 83 83 SSW 3 6 30.29 1026 10 16.0934 0 0
7:55 pm 19:55 Clear 61 16 55 13 83 83 S 6 9 30.28 1025 10 16.0934 0 0
8:15 pm 20:15 Clear 61 16 55 13 83 83 S 6 9 30.28 1025 10 16.0934 0 0
8:35 pm 20:35 Clear 61 16 55 13 83 83 S 5 7 30.29 1026 10 16.0934 0 0
8:55 pm 20:55 Clear 61 16 55 13 83 83 S 5 7 30.28 1025 10 16.0934 0 0
9:15 pm 21:15 Clear 59 15 54 12 82 82 S 6 9 30.28 1025 10 16.0934 0 0
9:35 pm 21:35 Clear 57 14 54 12 88 88 S 6 9 30.28 1025 10 16.0934 0 0
9:55 pm 21:55 Clear 57 14 54 12 88 88 S 6 9 30.28 1025 10 16.0934 0 0
10:15 pm 22:15 Clear 57 14 54 12 88 88 SSW 5 7 30.28 1025 10 16.0934 0 0
10:35 pm 22:35 Clear 57 14 54 12 88 88 SSW 5 7 30.28 1025 10 16.0934 0 0
10:55 pm 22:55 Clear 57 14 54 12 88 88 S 6 9 30.28 1025 10 16.0934 0 0
11:15 pm 23:15 Clear 55 13 54 12 94 94 SSW 3 6 30.27 1025 10 16.0934 0 0
11:35 pm 23:35 Clear 55 13 54 12 94 94 S 7 11 30.27 1025 10 16.0934 0 0
11:55 pm 23:55 Clear 57 14 54 12 88 88 S 6 9 30.27 1025 10 16.0934 0 0

Powered by AerisWeather